User: anonymous   Login
Location: Libas
(9.8833°N, 125.9833°E)
Time: 20:49:22
(UTC+00:00)
Language:

CZ-4B R/B - Orbit

View from above orbital plane
View from above orbital plane
View from above satellite
View from above satellite

Ground track
Ground track

The orbit data is extracted from the following two-line orbital elements,

1 33410U 08053C   21016.51406429  .00000299  00000-0  26070-4 0  9997
2 33410  97.8773  11.0255 0119854 124.4568 236.8049 14.99343549666692
Epoch (UTC): 16 January 2021 12:20:15
Eccentricity: 0.0119854
inclination: 97.8773°
perigee height: 485 km
apogee height: 652 km
right ascension of ascending node: 11.0255°
argument of perigee: 124.4568°
revolutions per day: 14.99343549
mean anomaly at epoch: 236.8049°
orbit number at epoch: 66669

The dashed part of the orbit path shows where the satellite is in the earth's shadow,  

DLR